This is the latest recevied weather packets stored in our database for station/object KC3ULW-13. If no packets are shown the sender has not sent any weather packets the latest 10 day(s).
| Time | Temp. | Humidity | Pressure | Rain* | Wind** | Luminosity | Snow |
|---|---|---|---|---|---|---|---|
| 1777769289 | 5.56° C | 68% | 1019.1 hPa | 0 mm | - | 0 W/m² | - |
| 1777768987 | 5.56° C | 68% | 1018.7 hPa | 0 mm | - | 0 W/m² | - |
| 1777768684 | 5.56° C | 68% | 1018.8 hPa | 0 mm | - | 0 W/m² | - |
| 1777768380 | 5.56° C | 67% | 1018.6 hPa | 0 mm | - | 0 W/m² | - |
| 1777768077 | 6.11° C | 67% | 1018.6 hPa | 0 mm | - | 0 W/m² | - |
| 1777767774 | 6.11° C | 66% | 1018.8 hPa | 0 mm | - | 0 W/m² | - |
| 1777767470 | 6.11° C | 66% | 1018.6 hPa | 0 mm | - | 0 W/m² | - |
| 1777767167 | 6.11° C | 66% | 1018.8 hPa | 0 mm | - | 1 W/m² | - |
| 1777766865 | 6.11° C | 66% | 1018.6 hPa | 0 mm | - | 3 W/m² | - |
| 1777766562 | 6.11° C | 65% | 1018.5 hPa | 0 mm | - | 5 W/m² | - |
| 1777766259 | 6.11° C | 66% | 1018.4 hPa | 0 mm | - | 4 W/m² | - |
| 1777765957 | 6.11° C | 66% | 1018.5 hPa | 0 mm | - | 4 W/m² | - |
| 1777765653 | 6.11° C | 65% | 1018.3 hPa | 0 mm | - | 6 W/m² | - |
| 1777765350 | 6.11° C | 65% | 1018.5 hPa | 0 mm | - | 13 W/m² | - |
| 1777765046 | 6.11° C | 65% | 1018.4 hPa | 0 mm | - | 18 W/m² | - |
| 1777764743 | 6.11° C | 65% | 1018.4 hPa | 0 mm | - | 19 W/m² | - |
| 1777764438 | 6.11° C | 65% | 1018.4 hPa | 0 mm | - | 22 W/m² | - |
| 1777764136 | 6.67° C | 64% | 1018.5 hPa | 0 mm | - | 26 W/m² | - |
| 1777763833 | 6.67° C | 64% | 1018.2 hPa | 0 mm | - | 33 W/m² | - |
| 1777763530 | 6.67° C | 64% | 1018.2 hPa | 0 mm | - | 42 W/m² | - |
| 1777763229 | 6.67° C | 64% | 1018.1 hPa | 0 mm | - | 50 W/m² | - |
| 1777762927 | 6.67° C | 64% | 1018.3 hPa | 0 mm | - | 55 W/m² | - |
| 1777762622 | 6.67° C | 63% | 1018.2 hPa | 0 mm | - | 54 W/m² | - |
| 1777762320 | 6.67° C | 67% | 1018.6 hPa | 0 mm | - | 48 W/m² | - |
| 1777762016 | 6.67° C | 67% | 1018.4 hPa | 0 mm | - | 49 W/m² | - |
* Rain latest hour (hover to see other rain measurements)
** Current wind speed in m/s (hover to see current wind gust speed)